Home > Weather > Sydney > Past weeks

Flag for Australia Weather for the Past 2 Weeks in Sydney, New South Wales, Australia

Now
70 °F

Passing clouds.


Feels Like: 70 °F
Forecast: 64 / 82 °F
Wind: 7 mph from Northwest

Location: Sydney Airport

Current Time: Feb 10, 2016 at 5:13:00 AM

Latest Report: Feb 10, 2016 at 4:30 AM


Visibility: N/A

Pressure: 29.98 "Hg

Humidity: 83%

Dew point: 64 °F

Location of SydneyLocation

Historic Weather in Sydney — Graph

°F

Sydney Temperature Yesterday

Maximum temperature yesterday: 79 °F (at 3:30 PM)
Minimum temperature yesterday: 72 °F (at 5:00 AM)
Average temperature yesterday: 74 °F

High & Low Weather Summary for the Past Weeks

 TemperatureHumidityPressure
High88 °F (Jan 31, 1:00 PM)100% (Jan 30, 5:30 PM)30.15 "Hg (Jan 30, 5:30 PM)
Low61 °F (Feb 2, 6:00 AM)22% (Jan 31, 1:00 PM)29.53 "Hg (Jan 29, 4:00 PM)
Average74 °F72%29.84 "Hg
* Reported Jan 26 4:00 AM — Feb 10 4:00 AM, Sydney, Weather by CustomWeather, © 2016

Note: Actual official high and low records may vary slightly from our data, if they occured in-between our weather recording intervals... More about our weather records

Advertising

Sydney Weather History for the Previous 24 Hours

 ConditionsComfort  
Time TempWeatherWind HumidityBarometerVisibility
4:00 AM
Wed, Feb 10
70 °FPassing clouds.7 mph83%29.98 "HgN/A
3:30 AM70 °FPassing clouds.6 mph83%30.01 "HgN/A
2:30 AM70 °FPassing clouds.7 mph83%30.01 "HgN/A
2:00 AM72 °FPassing clouds.5 mph78%30.04 "HgN/A
1:30 AM72 °FPassing clouds.6 mph83%30.04 "HgN/A
1:00 AM72 °FPassing clouds.No wind78%30.04 "HgN/A
12:00 AM72 °FPassing clouds.3 mph78%30.07 "HgN/A
11:00 PM
Tue, Feb 9
73 °FPassing clouds.6 mph74%30.09 "HgN/A
10:00 PM73 °FPassing clouds.6 mph74%30.09 "HgN/A
9:00 PM73 °FPassing clouds.8 mph74%30.09 "HgN/A
8:30 PM73 °FPassing clouds.8 mph74%30.07 "HgN/A
8:00 PM73 °FPassing clouds.10 mph69%30.07 "HgN/A
7:00 PM75 °FPassing clouds.12 mph65%30.07 "HgN/A
6:00 PM77 °FPassing clouds.12 mph57%30.07 "HgN/A
5:30 PM77 °FPassing clouds.13 mph57%30.07 "HgN/A
5:00 PM77 °FPassing clouds.15 mph57%30.07 "HgN/A
4:00 PM79 °FPassing clouds.15 mph51%30.09 "HgN/A
3:30 PM79 °FPassing clouds.15 mph54%30.09 "HgN/A
3:00 PM77 °FPassing clouds.15 mph57%30.09 "HgN/A
2:30 PM77 °FPassing clouds.16 mph51%30.12 "HgN/A
2:00 PM75 °FPassing clouds.17 mph61%30.12 "HgN/A
1:00 PM75 °FPassing clouds.16 mph61%30.12 "HgN/A
12:30 PM75 °FPassing clouds.17 mph61%30.12 "HgN/A
12:00 PM75 °FPassing clouds.18 mph65%30.15 "HgN/A
11:00 AM75 °FScattered clouds.17 mph69%30.15 "HgN/A
10:30 AM75 °FScattered clouds.17 mph65%30.15 "HgN/A
10:00 AM73 °FScattered clouds.18 mph74%30.15 "HgN/A
9:30 AM73 °FScattered clouds.18 mph74%30.15 "HgN/A
9:00 AM73 °FScattered clouds.20 mph74%30.12 "HgN/A
8:00 AM73 °FScattered showers. Broken clouds.15 mph78%30.12 "HgN/A
7:30 AM72 °FScattered showers. Broken clouds.10 mph83%30.09 "HgN/A
7:00 AM72 °FSprinkles. Partly sunny.8 mph83%30.09 "HgN/A
6:30 AM72 °FScattered showers. Partly sunny.10 mph83%30.09 "HgN/A
6:00 AM72 °FScattered showers. Passing clouds.10 mph83%30.07 "HgN/A
5:30 AM72 °FPassing clouds.8 mph83%30.07 "HgN/A
5:00 AM72 °FPassing clouds.9 mph83%30.07 "HgN/A
Weather by CustomWeather, © 2016

See weather overviewHow to use our weather pages